Location: Long Geng
(2.6167°N, 114.1333°E)
Time: 07:00:33
(UTC+00:00)

ALOS - Pass Details

Date: 14 May 2021
Orbit: 682 x 685 km, 97.9° (Epoch: 13 June)

Event Time Altitude Azimuth Distance (km) Brightness Sun altitude
Rises 20:44:44 0° 354° (N) 3,028 5.8 -21.5°
Reaches altitude 10° 20:47:10 10° 344° (NNW) 2,115 4.8 -20.9°
Enters shadow 20:50:33 30° 300° (WNW) 1,219 3.2 -20.1°
